FW7374 Weather Reports


time (UTC)temp
C
wind
direction
speed
KPH
gust
KPH
rain 1hr
cm
rain 24hr
cm
rain mn
cm
humidity
%
barometer
mb
20260509230947 21 228 0.0 4.8 0.00 0.00 0.00 61 1009.0
20260509220932 22 134 0.0 3.2 0.00 0.00 0.00 53 1009.1
20260509210927 23 130 0.0 9.7 0.00 0.00 0.00 51 1009.1
20260509200926 23 180 1.6 9.7 0.00 0.00 0.00 55 1009.2
20260509190923 22 213 3.2 11.3 0.00 0.00 0.00 55 1009.9
20260509180921 21 355 1.6 8.0 0.00 0.00 0.00 57 1010.7
20260509170918 21 346 1.6 6.4 0.00 0.00 0.00 55 1011.6
20260509160913 19 5 3.2 6.4 0.00 0.00 0.00 55 1011.7
20260509150912 17 282 1.6 4.8 0.00 0.00 0.00 59 1012.0
20260509140906 15 172 1.6 6.4 0.00 0.00 0.00 63 1012.4
20260509130900 15 194 1.6 4.8 0.00 0.00 0.00 64 1012.4
20260509120856 14 198 0.0 3.2 0.00 0.00 0.00 68 1012.6
20260509110849 13 198 0.0 1.6 0.00 0.00 0.00 67 1011.7
20260509103848 13 198 0.0 8.0 0.00 0.00 0.00 64 1011.5
20260509090832 13 264 0.0 8.0 0.00 0.00 0.00 62 1011.6
20260509080830 14 186 1.6 8.0 0.00 0.00 0.00 59 1012.0
20260509070831 14 190 1.6 4.8 0.00 0.00 0.00 58 1012.1
20260509063825 14 190 0.0 4.8 0.00 0.00 0.00 60 1012.4
20260509050819 15 177 1.6 6.4 0.00 0.00 0.00 56 1012.6
20260509030813 16 231 1.6 3.2 0.00 0.00 0.00 54 1012.8
20260509020813 13 239 0.0 0.0 0.00 0.00 0.00 62 1012.9
20260509010806 16 239 0.0 3.2 0.00 0.00 0.00 54 1012.7
20260509000742 18 259 0.0 3.2 0.00 0.00 0.00 48 1012.5